When you browse on this site, cookies collect data to enhance your experience and personalize the content and advertising you see.
Visit our Privacy Policy to learn more. By continuing to use the site, you agree to this use of cookies and data.
  • In Czech Republic
  • List of Countries
  • For 7 days
  • Water Temperature
  • Weather Map
  • Weather Widgets
  • user-avatar
    Login

    Hourly Weather Chiquimula

    Today, 16 November, Saturday

    Time Temperature Precipitation Wind Pressure Humidity
    00:00 +21°C° 0 mm 1 mps 708 mmHg 97%
    01:00 +21°C° 0 mm 1 mps 708 mmHg 97%
    02:00 +21°C° 0 mm 1 mps 708 mmHg 97%
    03:00 +21°C° 0 mm 1 mps 708 mmHg 97%
    04:00 +21°C° 0 mm 1 mps 708 mmHg 97%
    05:00 +21°C° 0 mm 1 mps 708 mmHg 97%
    06:00 +21°C° 0 mm 1 mps 708 mmHg 97%
    07:00 +22°C° 0.1 mm 1 mps 709 mmHg 93%
    08:00 +23°C° 0.1 mm 2 mps 709 mmHg 90%
    09:00 +24°C° 0.1 mm 2 mps 710 mmHg 86%
    10:00 +25°C° 0.2 mm 2 mps 709 mmHg 83%
    11:00 +26°C° 0.2 mm 2 mps 709 mmHg 81%
    12:00 +26°C° 0.2 mm 3 mps 708 mmHg 79%
    13:00 +26°C° 0.1 mm 3 mps 708 mmHg 76%
    14:00 +27°C° 0.1 mm 3 mps 707 mmHg 73%
    15:00 +27°C° 0.1 mm 3 mps 707 mmHg 71%
    16:00 +25°C° 0 mm 2 mps 707 mmHg 77%
    17:00 +24°C° 0 mm 2 mps 707 mmHg 84%
    18:00 +21°C° 0 mm 2 mps 708 mmHg 91%
    19:00 +21°C° 0 mm 2 mps 708 mmHg 92%
    20:00 +21°C° 0 mm 1 mps 708 mmHg 94%
    21:00 +21°C° 0 mm 1 mps 709 mmHg 95%
    22:00 +20°C° 0 mm 1 mps 708 mmHg 95%
    23:00 +20°C° 0 mm 1 mps 708 mmHg 96%

    Tomorrow, 17 November, Sunday

    Time Temperature Precipitation Wind Pressure Humidity
    00:00 +20°C° 0 mm 1 mps 708 mmHg 96%
    01:00 +20°C° 0 mm 1 mps 708 mmHg 96%
    02:00 +20°C° 0 mm 1 mps 707 mmHg 97%
    03:00 +20°C° 0 mm 1 mps 707 mmHg 97%
    04:00 +20°C° 0 mm 1 mps 707 mmHg 97%
    05:00 +20°C° 0 mm 1 mps 707 mmHg 97%
    06:00 +20°C° 0 mm 1 mps 708 mmHg 96%
    07:00 +21°C° 0 mm 1 mps 708 mmHg 91%
    08:00 +23°C° 0 mm 1 mps 709 mmHg 86%
    09:00 +24°C° 0 mm 2 mps 709 mmHg 81%
    10:00 +25°C° 0 mm 2 mps 709 mmHg 75%
    11:00 +26°C° 0 mm 2 mps 708 mmHg 70%
    12:00 +28°C° 0 mm 2 mps 708 mmHg 64%
    13:00 +28°C° 0 mm 2 mps 707 mmHg 65%
    14:00 +27°C° 0 mm 2 mps 706 mmHg 66%
    15:00 +27°C° 0 mm 2 mps 706 mmHg 67%
    16:00 +26°C° 0 mm 2 mps 706 mmHg 75%
    17:00 +24°C° 0 mm 2 mps 706 mmHg 83%
    18:00 +22°C° 0 mm 1 mps 706 mmHg 91%
    19:00 +21°C° 0 mm 1 mps 707 mmHg 92%
    20:00 +21°C° 0 mm 1 mps 707 mmHg 94%
    21:00 +20°C° 0 mm 1 mps 708 mmHg 96%
    22:00 +20°C° 0 mm 1 mps 708 mmHg 96%
    23:00 +20°C° 0 mm 1 mps 707 mmHg 97%

    Day after tomorrow, 18 November, Monday

    Time Temperature Precipitation Wind Pressure Humidity
    00:00 +19°C° 0 mm 1 mps 707 mmHg 97%
    01:00 +19°C° 0 mm 1 mps 707 mmHg 97%
    02:00 +19°C° 0 mm 1 mps 706 mmHg 97%
    03:00 +19°C° 0 mm 1 mps 706 mmHg 97%
    04:00 +19°C° 0 mm 1 mps 706 mmHg 96%
    05:00 +19°C° 0 mm 1 mps 707 mmHg 96%
    06:00 +19°C° 0 mm 1 mps 707 mmHg 96%
    07:00 +20°C° 0 mm 1 mps 707 mmHg 91%
    08:00 +22°C° 0 mm 1 mps 708 mmHg 85%
    09:00 +23°C° 0 mm 1 mps 708 mmHg 80%
    10:00 +24°C° 0 mm 2 mps 708 mmHg 75%
    11:00 +25°C° 0 mm 2 mps 707 mmHg 71%
    12:00 +26°C° 0 mm 2 mps 707 mmHg 66%
    13:00 +26°C° 0 mm 2 mps 707 mmHg 67%
    14:00 +26°C° 0 mm 2 mps 706 mmHg 67%
    15:00 +26°C° 0 mm 2 mps 706 mmHg 67%
    16:00 +25°C° 0 mm 2 mps 706 mmHg 75%
    17:00 +23°C° 0 mm 2 mps 706 mmHg 83%
    18:00 +21°C° 0 mm 1 mps 706 mmHg 90%
    19:00 +20°C° 0 mm 1 mps 707 mmHg 92%
    20:00 +20°C° 0 mm 1 mps 707 mmHg 94%
    21:00 +19°C° 0 mm 1 mps 708 mmHg 96%
    22:00 +19°C° 0 mm 1 mps 707 mmHg 96%
    23:00 +18°C° 0 mm 1 mps 707 mmHg 96%

    19 November, Tuesday

    Time Temperature Precipitation Wind Pressure Humidity
    00:00 +16°C° 0 mm 0 mps 707 mmHg 96%
    01:00 +16°C° 0 mm 0 mps 707 mmHg 97%
    02:00 +16°C° 0 mm 0 mps 707 mmHg 97%
    03:00 +16°C° 0 mm 0 mps 706 mmHg 97%
    04:00 +15°C° 0 mm 0 mps 707 mmHg 97%
    05:00 +15°C° 0 mm 0 mps 707 mmHg 97%
    06:00 +15°C° 0 mm 0 mps 707 mmHg 97%
    07:00 +19°C° 0 mm 1 mps 708 mmHg 90%
    08:00 +21°C° 0 mm 1 mps 708 mmHg 82%
    09:00 +24°C° 0 mm 1 mps 709 mmHg 75%
    10:00 +25°C° 0 mm 1 mps 708 mmHg 69%
    11:00 +26°C° 0 mm 2 mps 708 mmHg 64%
    12:00 +27°C° 0 mm 2 mps 708 mmHg 59%
    13:00 +27°C° 0 mm 2 mps 707 mmHg 60%
    14:00 +27°C° 0 mm 2 mps 707 mmHg 62%
    15:00 +27°C° 0 mm 2 mps 707 mmHg 63%
    16:00 +25°C° 0 mm 2 mps 707 mmHg 71%
    17:00 +23°C° 0 mm 2 mps 707 mmHg 80%
    18:00 +21°C° 0 mm 1 mps 707 mmHg 88%
    19:00 +20°C° 0 mm 1 mps 708 mmHg 90%
    20:00 +19°C° 0 mm 1 mps 708 mmHg 92%
    21:00 +19°C° 0 mm 1 mps 709 mmHg 94%
    22:00 +19°C° 0 mm 1 mps 709 mmHg 95%
    23:00 +18°C° 0 mm 1 mps 708 mmHg 95%

    20 November, Wednesday

    Time Temperature Precipitation Wind Pressure Humidity
    00:00 +18°C° 0 mm 1 mps 708 mmHg 96%
    01:00 +16°C° 0 mm 0 mps 708 mmHg 96%
    02:00 +16°C° 0 mm 0 mps 708 mmHg 96%
    03:00 +16°C° 0 mm 0 mps 707 mmHg 97%
    04:00 +15°C° 0 mm 0 mps 708 mmHg 97%
    05:00 +15°C° 0 mm 0 mps 708 mmHg 97%
    06:00 +15°C° 0 mm 0 mps 708 mmHg 97%
    07:00 +19°C° 0 mm 1 mps 709 mmHg 90%
    08:00 +21°C° 0 mm 1 mps 709 mmHg 84%
    09:00 +23°C° 0 mm 1 mps 710 mmHg 77%
    10:00 +25°C° 0 mm 1 mps 709 mmHg 72%
    11:00 +26°C° 0 mm 1 mps 709 mmHg 68%
    12:00 +27°C° 0 mm 2 mps 708 mmHg 63%
    13:00 +27°C° 0 mm 2 mps 708 mmHg 64%
    14:00 +27°C° 0 mm 2 mps 707 mmHg 64%
    15:00 +27°C° 0 mm 2 mps 707 mmHg 64%
    16:00 +25°C° 0 mm 1 mps 707 mmHg 73%
    17:00 +23°C° 0 mm 1 mps 707 mmHg 82%
    18:00 +21°C° 0 mm 1 mps 707 mmHg 91%
    19:00 +21°C° 0 mm 1 mps 708 mmHg 93%
    20:00 +20°C° 0 mm 1 mps 708 mmHg 95%
    21:00 +20°C° 0 mm 1 mps 709 mmHg 97%
    22:00 +20°C° 0 mm 1 mps 709 mmHg 97%
    23:00 +18°C° 0 mm 0 mps 708 mmHg 97%

    21 November, Thursday

    Time Temperature Precipitation Wind Pressure Humidity
    00:00 +17°C° 0 mm 0 mps 708 mmHg 98%
    01:00 +17°C° 0 mm 0 mps 708 mmHg 97%
    02:00 +17°C° 0 mm 0 mps 708 mmHg 97%
    03:00 +17°C° 0 mm 0 mps 707 mmHg 97%
    04:00 +17°C° 0 mm 0 mps 708 mmHg 97%
    05:00 +18°C° 0 mm 0 mps 708 mmHg 96%
    06:00 +18°C° 0 mm 0 mps 708 mmHg 96%
    07:00 +19°C° 0 mm 0 mps 709 mmHg 89%
    08:00 +21°C° 0 mm 0 mps 709 mmHg 83%
    09:00 +23°C° 0 mm 0 mps 710 mmHg 77%
    10:00 +26°C° 0 mm 1 mps 709 mmHg 71%
    11:00 +28°C° 0 mm 1 mps 709 mmHg 65%
    12:00 +29°C° 0 mm 1 mps 708 mmHg 59%
    13:00 +29°C° 0 mm 1 mps 708 mmHg 59%
    14:00 +29°C° 0 mm 1 mps 707 mmHg 60%
    15:00 +29°C° 0 mm 2 mps 706 mmHg 60%
    16:00 +27°C° 0 mm 1 mps 707 mmHg 70%
    17:00 +25°C° 0 mm 1 mps 707 mmHg 80%
    18:00 +23°C° 0 mm 1 mps 707 mmHg 90%
    19:00 +22°C° 0 mm 1 mps 707 mmHg 92%
    20:00 +22°C° 0 mm 1 mps 708 mmHg 95%
    21:00 +21°C° 0 mm 1 mps 708 mmHg 97%
    22:00 +19°C° 0 mm 0 mps 708 mmHg 97%
    23:00 +19°C° 0 mm 0 mps 708 mmHg 97%
    Show more